This is the latest recevied weather packets stored in our database for station/object SP9KB-13. If no packets are shown the sender has not sent any weather packets the latest 10 day(s).
| Time | Temp. | Humidity | Pressure | Rain* | Wind** | Luminosity | Snow |
|---|---|---|---|---|---|---|---|
| 1777812644 | 22.22° C | 32% | 1000.5 hPa | 0 mm | - | - | - |
| 1777812343 | 21.67° C | 33% | 1000.6 hPa | 0 mm | - | - | - |
| 1777812043 | 21.67° C | 35% | 1000.6 hPa | 0 mm | - | - | - |
| 1777811742 | 21.67° C | 33% | 1000.7 hPa | 0 mm | - | - | - |
| 1777811441 | 22.22° C | 33% | 1000.8 hPa | 0 mm | - | - | - |
| 1777811141 | 21.67° C | 32% | 1000.8 hPa | 0 mm | - | - | - |
| 1777810840 | 21.67° C | 33% | 1000.8 hPa | 0 mm | - | - | - |
| 1777810540 | 21.67° C | 33% | 1001 hPa | 0 mm | - | - | - |
| 1777810239 | 21.11° C | 33% | 1001 hPa | 0 mm | - | - | - |
| 1777809938 | 21.67° C | 32% | 1000.9 hPa | 0 mm | - | - | - |
| 1777809638 | 22.22° C | 31% | 1001 hPa | 0 mm | - | - | - |
| 1777809337 | 22.22° C | 33% | 1001.1 hPa | 0 mm | - | - | - |
| 1777809037 | 22.22° C | 32% | 1001.2 hPa | 0 mm | - | - | - |
| 1777808736 | 22.22° C | 33% | 1001.1 hPa | 0 mm | - | - | - |
| 1777808436 | 21.11° C | 33% | 1001.1 hPa | 0 mm | - | - | - |
| 1777808135 | 21.11° C | 35% | 1001.1 hPa | 0 mm | - | - | - |
| 1777807835 | 21.67° C | 34% | 1001.4 hPa | 0 mm | - | - | - |
| 1777807534 | 21.11° C | 33% | 1001.3 hPa | 0 mm | - | - | - |
| 1777807233 | 20.56° C | 35% | 1001.3 hPa | 0 mm | - | - | - |
| 1777806933 | 20° C | 36% | 1001.4 hPa | 0 mm | - | - | - |
| 1777806632 | 21.11° C | 34% | 1001.5 hPa | 0 mm | - | - | - |
| 1777806331 | 20.56° C | 37% | 1001.7 hPa | 0 mm | - | - | - |
| 1777806031 | 21.11° C | 36% | 1001.6 hPa | 0 mm | - | - | - |
| 1777805730 | 20.56° C | 36% | 1001.8 hPa | 0 mm | - | - | - |
| 1777805429 | 20° C | 36% | 1001.9 hPa | 0 mm | - | - | - |
* Rain latest hour (hover to see other rain measurements)
** Current wind speed in m/s (hover to see current wind gust speed)